Olathe, KS

12:30 PM CST on December 06, 2019 (GMT -0600)
Johnson County Executive

Weather History for KOJC - November, 2019

Change the Weather History Date:

Monday, November 18, 2019

  Actual Average Record
Temperature  
Mean Temperature 45 °F 43 °F  
Max Temperature 59 °F 52 °F 76 °F (1976)
Min Temperature 30 °F 33 °F 10 °F (2014)
Degree Days  
Heating Degree Days 20 22  
Month to date heating degree days 463 326  
Since 1 July heating degree days 892 651  
Cooling Degree Days 0 0  
Month to date cooling degree days 0 0  
Year to date cooling degree days 1382 1349  
Moisture  
Dew Point 34 °F    
Average Humidity 71    
Maximum Humidity 100    
Minimum Humidity 41    
Precipitation  
Precipitation 0.00 in 0.07 in 1.01 in (1971)
Month to date precipitation 0.07 1.63  
Year to date precipitation 47.44 37.54  
Sea Level Pressure  
Sea Level Pressure 29.78 in    
Wind  
Wind Speed 6 mph (WSW)    
Max Wind Speed 15 mph    
Max Gust Speed 24 mph    
Visibility 10 miles    
Events      
T = Trace of Precipitation, MM = Missing Value Source: NWS Daily Summary

Daily Weather History Graph

Daily Weather History Graph

Search for Another Location

Airport or City:

Astronomy

Nov. 18, 2019 Rise Set
Actual Time 7:04 AM CST 5:03 PM CST
Civil Twilight 6:35 AM CST 5:31 PM CST
Nautical Twilight 6:03 AM CST 6:04 PM CST
Astronomical Twilight 5:31 AM CST 6:35 PM CST
Moon 10:49 PM CST (11/18) 12:36 PM CST (11/18)
Length of Visible Light 10h 55m
Length of Day
9h 58m
Waning Gibbous, 63% of the Moon is Illuminated
Nov 18
Waning Gibbous
Nov 19
Last Quarter
Nov 26
New
Dec 4
First Quarter
Dec 11
Full

Hourly Weather History & Observations

Time (CST) Temp. Windchill Dew Point Humidity Pressure Visibility Wind Dir Wind Speed Gust Speed Precip Events Conditions
12:53 AM 33.1 °F - 32.0 °F 96% 29.91 in 10.0 mi Calm Calm - N/A   Clear
1:53 AM 32.0 °F 28.7 °F 30.9 °F 96% 29.91 in 10.0 mi SW 3.5 mph - N/A   Clear
2:53 AM 32.0 °F - 32.0 °F 100% 29.90 in 10.0 mi Calm Calm - N/A   Clear
3:53 AM 30.9 °F - 30.9 °F 100% 29.87 in 10.0 mi Calm Calm - N/A   Clear
4:53 AM 30.0 °F 25.2 °F 30.0 °F 100% 29.86 in 10.0 mi South 4.6 mph - N/A   Clear
5:53 AM 30.9 °F 25.2 °F 30.9 °F 100% 29.85 in 10.0 mi SSW 5.8 mph - N/A   Clear
6:53 AM 32.0 °F 26.4 °F 30.9 °F 96% 29.84 in 10.0 mi South 5.8 mph - N/A   Clear
7:53 AM 34.0 °F 28.0 °F 32.0 °F 92% 29.83 in 10.0 mi South 6.9 mph - N/A   Overcast
8:53 AM 42.1 °F 36.6 °F 35.1 °F 76% 29.81 in 10.0 mi South 9.2 mph - N/A   Overcast
9:53 AM 46.9 °F - 35.1 °F 63% 29.79 in 10.0 mi SSW 13.8 mph 20.7 mph N/A   Mostly Cloudy
11:53 AM 51.1 °F - 35.1 °F 54% 29.75 in 10.0 mi SW 6.9 mph - N/A   Overcast
12:53 PM 54.0 °F - 33.1 °F 45% 29.72 in 10.0 mi West 9.2 mph - N/A   Scattered Clouds
1:53 PM 55.9 °F - 33.1 °F 42% 29.71 in 10.0 mi WNW 8.1 mph - N/A   Clear
2:53 PM 57.0 °F - 34.0 °F 42% 29.70 in 10.0 mi West 6.9 mph - N/A   Scattered Clouds
3:53 PM 59.0 °F - 35.1 °F 41% 29.71 in 10.0 mi West 4.6 mph - N/A   Mostly Cloudy
4:53 PM 55.9 °F - 35.1 °F 45% 29.72 in 10.0 mi WSW 3.5 mph - N/A   Scattered Clouds
5:53 PM 53.1 °F - 35.1 °F 50% 29.72 in 10.0 mi Calm Calm - N/A   Partly Cloudy
6:53 PM 46.9 °F - 35.1 °F 63% 29.71 in 10.0 mi SSW 3.5 mph - N/A   Scattered Clouds
7:53 PM 50.0 °F - 35.1 °F 57% 29.72 in 10.0 mi WSW 5.8 mph - N/A   Clear
8:53 PM 52.0 °F - 39.9 °F 63% 29.73 in 10.0 mi West 5.8 mph - N/A   Clear
9:53 PM 54.0 °F - 37.9 °F 55% 29.74 in 10.0 mi NW 10.4 mph 24.2 mph N/A   Clear
10:53 PM 53.1 °F - 37.0 °F 55% 29.76 in 10.0 mi NW 9.2 mph - N/A   Clear
11:53 PM 51.1 °F - 37.9 °F 61% 29.79 in 10.0 mi NNW 8.1 mph - N/A   Clear